Kineis-5B

operational
NORAD ID: 62085 Int'l Des: 2024-219 Owner: KINEIS Country: F
LEOCIRCULARRETROGRADESSO

About Kineis-5B

Description loading...

Live Position

Loading 3D Globe...

Upcoming Passes

Altitude History

Altitude vs Time

uPlot chart will show altitude changes over time

Two-Line Element Set

1 62085U 24219E 25311.32536596 .00002976 00000-0 42528-3 0 9998
2 62085 97.9844 111.8767 0000820 253.4340 106.6780 14.77423916 51239
Epoch: Nov 7, 2025 • Age: 8 hours

Current Status

Altitude 640.9 km
Velocity 7.54 km/s
Sub-Earth Point -2.21°S, 173.47°W
Launch Date Nov 25, 2024
Age 0.9 years
Type other

Technical Details

Classification Payload
Mass 28.00 kg
Dry Mass 28.00 kg
Total Mass 28.00 kg
Length 0.40 m
Diameter 0.20 m
Span 1.60 m
Shape Box+ 2 pan + ant
Manufacturer KINEIS
Bus Type Cubesat 16U
Phase Status In Orbit
Owner/State KINEIS/F

Large Constellations

Loading constellations...